Powrót do katalogu

CZ-6A DEB

AktywnySSO
NORAD 55900·DEBRIS·🇨🇳 China

Wystrzelony Nov 11, 2022 z Taiyuan Satellite Launch Center

Loading…

Następne Przeloty (najbliższe 24 godziny)

TLE

ŚwieżeSource: Space-Track

Epoka: Sep 14, 2026, 11:26 UTC

1 55900U 22151AAY 26257.47703990  .00000924  00000-0  43834-3 0  9991
2 55900  98.7685 267.1782 0038000  77.9964 282.5468 14.21611222192313

Śledź CZ-6A DEB w czasie rzeczywistym z AllMySat

Download on the App Store